Printer-friendly version

IAU Minor Planet Center

Minor Planet Center

MPEC 2003-E36 : 2003 EH16

The following Minor Planet Electronic Circular may be linked-to from your own Web pages, but must not otherwise be redistributed electronically.


Read MPEC 2003-E35 Read MPEC 2003-E37


M.P.E.C. 2003-E36                                Issued 2003 Mar.  9, 13:44 UT

     The Minor Planet Electronic Circulars contain information on unusual
         minor planets and routine data on comets.  They are published
   on behalf of Commission 20 of the International Astronomical Union by the
          Minor Planet Center, Smithsonian Astrophysical Observatory,
                          Cambridge, MA 02138, U.S.A.

             Prepared using the Tamkin Foundation Computer Network

                              MPC@CFA.HARVARD.EDU
          URL http://cfa-www.harvard.edu/iau/mpc.html  ISSN 1523-6714

                                   2003 EH16

Observations:
     K03E16H* C2003 03 08.42267 11 01 08.57 +25 27 55.6          19.9        644
     K03E16H  C2003 03 08.42837 11 01 07.84 +25 27 39.1          19.4        644
     K03E16H  C2003 03 08.43184 11 01 07.36 +25 27 27.8          20.1        644
     K03E16H  C2003 03 08.43883 11 01 06.47 +25 27 07.8          20.2        644
     K03E16H  C2003 03 08.44228 11 01 05.97 +25 26 56.0          19.9        644
     K03E16H  C2003 03 08.44926 11 01 05.13 +25 26 36.0          19.9        644
     K03E16H  C2003 03 08.84829 11 00 17.35 +25 06 34.8                      557
     K03E16H  C2003 03 08.84987 11 00 17.08 +25 06 30.1                      557
     K03E16H  C2003 03 08.85302 11 00 16.79 +25 06 22.0                      557
     K03E16H  C2003 03 08.85458 11 00 16.59 +25 06 17.0                      557
     K03E16H  C2003 03 08.88341 11 00 12.77 +25 04 51.4                      557
     K03E16H  C2003 03 08.88970 11 00 12.08 +25 04 32.0                      557
     K03E16H  C2003 03 08.89284 11 00 11.67 +25 04 23.9                      557
     K03E16H  C2003 03 08.90701 11 00 09.81 +25 03 41.0                      557
     K03E16H  C2003 03 08.91174 11 00 09.19 +25 03 27.8                      557
     K03E16H  C2003 03 08.92969 11 00 06.97 +25 02 34.8                      246
     K03E16H  C2003 03 08.93028 11 00 06.85 +25 02 32.6                      246
     K03E16H  C2003 03 08.93090 11 00 06.81 +25 02 30.3                      246
     K03E16H  C2003 03 08.93155 11 00 06.68 +25 02 29.0                      246
     K03E16H  C2003 03 08.97941 11 00 00.75 +25 00 09.4          18.8 R      176
     K03E16H  C2003 03 08.98161 11 00 00.46 +25 00 03.0          18.9 R      176
     K03E16H  C2003 03 08.98381 11 00 00.16 +24 59 56.5          18.6 R      176
     K03E16H  C2003 03 08.98601 10 59 59.87 +24 59 50.1          19.0 R      176
     K03E16H  C2003 03 08.98786 10 59 59.62 +24 59 44.7          19.0 R      176
     K03E16H  C2003 03 09.20937 10 59 33.41 +24 48 46.9          19.8 R      858
     K03E16H  C2003 03 09.21664 10 59 32.55 +24 48 24.5          19.6 R      858
     K03E16H  C2003 03 09.21678 10 59 32.63 +24 48 26.2          20.2 R      651
     K03E16H  C2003 03 09.21841 10 59 32.41 +24 48 21.3          20.2 R      651
     K03E16H  C2003 03 09.21984 10 59 32.22 +24 48 16.7          20.0 R      651
     K03E16H  C2003 03 09.22391 10 59 31.63 +24 48 04.5          19.4 R      858
     K03E16H  C2003 03 09.27378 10 59 25.28 +24 45 38.0          19.8 R      448
     K03E16H  C2003 03 09.27922 10 59 24.56 +24 45 21.0          20.1 R      448
     K03E16H  C2003 03 09.28466 10 59 23.84 +24 45 05.7          19.0 R      448
     K03E16H  C2003 03 09.31083 10 59 20.52 +24 43 49.4          19.6 R      926
     K03E16H  C2003 03 09.31260 10 59 20.37 +24 43 42.9          19.9 R      926
     K03E16H  C2003 03 09.31435 10 59 20.05 +24 43 38.2          19.6 R      926
     K03E16H  C2003 03 09.31661 10 59 19.65 +24 43 32.1          19.4 R      711
     K03E16H  C2003 03 09.32077 10 59 19.04 +24 43 19.3          19.4 R      711
     K03E16H  C2003 03 09.32491 10 59 18.46 +24 43 07.9          19.8 R      711

Observer details:
176 Observatori Astronomic de Consell.  Observers A. Lopez, R. Pacheco.
    0.41-m reflector + CCD, 0.2-m f/3.3 Schmidt-Cassegrain + CCD.
246 Klet Observatory-KLENOT.  Observers J. Ticha, M. Tichy.  1.06-m KLENOT
    Telescope + CCD.
448 Desert Moon Observatory.  Observer B. Stevens.  0.3-m Schmidt-Cassegrain
    + CCD.
557 Ondrejov.  Observer P. Kusnirak.  0.65-m f/3.6 reflector + CCD.
644 Palomar Mountain/NEAT.  Observers R. Bambery, E. Helin, S. Pravdo,
    M. Hicks, K. Lawrence, R. Thicksten.  1.2-m Schmidt + CCD.
651 Grasslands Observatory, Tucson.  Observer J. E. McGaha.  0.62-m f/5.1
    Newtonian + CCD.
711 McDonald Observatory.  Observer P. J. Shelus.  0.76-m reflector with prime
    focus corrector + CCD.
858 Tebbutt Observatory, Edgewood.  Observer F. B. Zoltowski.  0.3-m f/8.2
    Schmidt-Cassegrain + CCD.
926 Tenagra II Observatory.  Observers P. R. Holvorcem, M. Schwartz.  0.81-m
    f/7 Ritchey-Chretien + CCD.

Orbital elements:
2003 EH16
Epoch 2003 Mar. 2.0 TT = JDT 2452700.5                  MPC
M  17.31156              (2000.0)            P               Q
n   0.27422023     Peri.  100.83937     -0.18325005     -0.98306502
a   2.3464054      Node   359.70507     +0.73530116     -0.13598141
e   0.5299758      Incl.   18.16349     +0.65249645     -0.12285037
P   3.59           H   20.4           G   0.15
From 39 observations 2003 Mar. 8-9.

Ephemeris:
2003 EH16                a,e,i = 2.35, 0.53, 18                  q = 1.1029
Date    TT    R. A. (2000) Decl.     Delta      r     Elong.  Phase     V
2003 03 02    11 16.63   +31 04.1    0.354    1.322   155.6    18.1    19.7
2003 03 12    10 54.32   +22 34.4    0.409    1.384   159.4    14.6    20.0
2003 03 22    10 41.22   +15 33.7    0.486    1.449   154.2    17.4    20.6
2003 04 01    10 35.38   +10 07.1    0.583    1.517   145.8    21.7    21.2
2003 04 11    10 35.05   +05 55.8    0.696    1.586   137.4    25.3    21.8

Brian G. Marsden             (C) Copyright 2003 MPC           M.P.E.C. 2003-E36

Read MPEC 2003-E35 Read MPEC 2003-E37


Our Web policy. Index to the CBAT/MPC/ICQ pages.


Valid HTML 4.01!